Regional Weather Roundup
Issued by NWS

Home | Current Version | Previous Version | Text Only | Print | Product List | Glossary On
Versions: 1 2 3 4 5 6 7 8 9 10 11 12 13 14 15 16 17 18 19 20 21 22 23 24 25 26 27 28 29 30 31 32 33 34 35 36 37 38 39 40 41 42 43 44 45 46 47 48 49 50
750
ASUS42 KTBW 072216
RWRFL
FLORIDA REGIONAL WEATHER ROUNDUP
NATIONAL WEATHER SERVICE TAMPA BAY RUSKIN FL
500 PM EST SUN FEB 07 2016

NOTE: "FAIR" INDICATES FEW OR NO CLOUDS BELOW 12,000 FEET WITH NO
SIGNIFICANT WEATHER AND/OR OBSTRUCTIONS TO VISIBILITY.


FLZ001>010-012>015-112-114-115-072300-
PANHANDLE FLORIDA

CITY           SKY/WX    TMP DP  RH WIND       PRES   REMARKS
PENSACOLA      SUNNY     60  22  23 W5        30.08F
MILTON NAS     MOSUNNY   58  24  27 NW8       30.08
CRESTVIEW      SUNNY     60  22  23 NW13      30.07F
DUKE FIELD     FAIR      60  23  24 NW6       30.05F
VALPARAISO     SUNNY     61  23  23 NW7       30.05F
MARY ESTHER    SUNNY     60  19  21 N9        30.06F
TRI COUNTY     FAIR      59  27  29 VRB5      30.05F
PANAMA CITY    FAIR      59  27  29 NW6       30.04F
TYNDALL AFB    SUNNY     59  28  30 NW10      30.06S
APALACHICOLA   SUNNY     60  25  26 N14       30.04S

STATION/POSITION SKY/WX   TEMP    WIND        PRES    WAVE   SWELL
                          AIR SEA DIR/SP/G            HT/PER HT/PER
                          (F)     (DEG/KT/KT) (MB)    (FT/S) (FT/S)
30.1N   87.6W              56 62  270/ 12/ 14 1019.1F   1/ 3
28.8N   86.0W              56 69  330/ 14/ 19 1019.6S   5/ 6
PANAMA CITY BEAC           58 61  340/  7/ 14 1018.3F
CAPE SAN BLAS    NOT AVBL
TOWER C          NOT AVBL
28.5N   84.5W              56 68  320/ 17/ 21 1018.0R   4/ 6

$$
FLZ011-016>038-118-127-128-134-139-239-072300-
NORTH FLORIDA

CITY           SKY/WX    TMP DP  RH WIND       PRES   REMARKS
MARIANNA       SUNNY     59  24  26 NW9       30.03F
TALLAHASSEE    SUNNY     59  22  24 N12G22    30.03F
PERRY          SUNNY     58  20  22 NW9       30.02S
LIVE OAK         N/A     57  25  28 NW10G16   30.02F
CROSS CITY       N/A     59  24  26 N13       30.00F
LAKE CITY      FAIR      54  27  35 NW9G23    30.00S
GAINESVILLE    SUNNY     55  24  30 NW12G22   29.99S
WILLISTON      FAIR      59  27  29 NW13G21   30.00F
KEYSTONE HEIGH FAIR      55  23  28 N9G21     29.99S
PALATKA        FAIR      55  28  35 NW13G20   29.99R
MAYPORT NAS    SUNNY     56  28  34 NW12G21   29.97R
JACKSONVILLE   SUNNY     55  27  34 NW16      29.97R
JAX NAS        SUNNY     57  25  29 NW13G22   29.98R
JAX CRAIG      SUNNY     55  28  35 NW15      29.97R
JAX CECIL      SUNNY     55  27  33 NW12G22   29.99R
FERNANDINA BEA FAIR      57  27  30 NW13G21   29.95R
ST AUGUSTINE   SUNNY     55  29  36 NW16      29.98R
PALM COAST     CLEAR     55  34  44 NW13G21   29.97S

STATION/POSITION SKY/WX   TEMP    WIND        PRES    WAVE   SWELL
                          AIR SEA DIR/SP/G            HT/PER HT/PER
                          (F)     (DEG/KT/KT) (MB)    (FT/S) (FT/S)
SHELL POINT                58     330/ 13/ 17 1015.7
KEATON BEACH               57     320/  5/  8 1016.6F
CEDAR KEY                  54     310/ 10/ 14 1016.5F
FERNANDINA                 54 54  310/  9/ 16 1014.5S
30.7N   81.3W                 56                N/A     5/12   2/12
MAYPORT                    55 56  320/ 15/ 19 1014.2F
31.4N   80.9W              52 56  350/ 19/ 23 1013.3F   6/ 5   2/13
ST AUGUSTINE               54 57  330/ 13/ 14 1015.3R

$$
FLZ040-043>046-052-053-057-058-063-144-072300-
INTERIOR CENTRAL FLORIDA

CITY           SKY/WX    TMP DP  RH WIND       PRES   REMARKS
OCALA          SUNNY     57  23  26 NW14G21   30.00S
THE VILLAGES     N/A     57  28  33 NW13G18   29.89R
LEESBURG       SUNNY     57  26  30 NW16G22   29.99R
SANFORD        SUNNY     57  32  38 NW14      29.96S
ORLANDO EXEC   SUNNY     59  28  30 NW16G24   29.97R
ORLANDO INTL   SUNNY     57  28  33 NW15      29.97R
KISSIMMEE      SUNNY     59  28  31 NW16G25   29.97R
WINTER HAVEN   SUNNY     57  29  34 W14       30.00R
LAKELAND       SUNNY     55  27  33 NW17G25   30.00R
BARTOW         SUNNY     55  25  30 W14G20    30.00R
OKEECHOBEE     SUNNY     57  34  41 W13       29.99R

$$
FLZ041-047-054-059-064-141-147-072300-
EAST CENTRAL FLORIDA

CITY           SKY/WX    TMP DP  RH WIND       PRES   REMARKS
ORMOND BEACH   SUNNY     55  36  47 NW16      29.97R
DAYTONA BEACH  MOSUNNY   55  35  47 NW15G22   29.96S
DELAND           N/A     55  32  41 NW15      29.98S
NEW SMYRNA BEA SUNNY     55  37  50 NW21G30   29.94S
JFK SPACE CTR  MOSUNNY   57  38  47 NW13      29.95R
CAPE CANAVERAL SUNNY     58  39  49 NW18      29.93S
PATRICK AFB    SUNNY     58  37  44 NW20G25   29.94S
MELBOURNE      SUNNY     58  34  40 NW18G25   29.94S
VERO BEACH     SUNNY     58  35  42 W20G25    29.96R
FT PIERCE      SUNNY     57  36  45 W15       29.96R
STUART         SUNNY     63  28  27 W15G25    29.98R

STATION/POSITION SKY/WX   TEMP    WIND        PRES    WAVE   SWELL
                          AIR SEA DIR/SP/G            HT/PER HT/PER
                          (F)     (DEG/KT/KT) (MB)    (FT/S) (FT/S)
28.5N   80.2W              57 71  300/ 23/ 29 1013.4R
28.9N   78.5W              62 74              1009.3R
TRIDENT PIER               57 65  290/ 13/ 20 1013.7R
28.4N   80.5W                 65                N/A     4/11   2/11
27.5N   80.2W                 72                N/A     5/11   2/11

$$
FLZ050-056-061-142-242-148-248-149-249-151-251-155-255-
160-260-072300-
WEST CENTRAL FLORIDA

CITY           SKY/WX    TMP DP  RH WIND       PRES   REMARKS
CRYSTAL RIVER  FAIR      54  34  47 W13G21    30.01S
INVERNESS      FAIR      57  32  38 NW7       30.01R HAZE
BROOKSVILLE    SUNNY     55  32  41 W17       30.02R
ZEPHYRHILLS    FAIR      56  27  32 NW14G22   30.01R
CLEARWATER AIR FAIR      54  32  43 NW13G25   30.04R
ST PETE CLEARW SUNNY     54  33  45 NW22      30.04R
TAMPA INTL     SUNNY     55  29  36 NW15G23   30.04R
TAMPA EXEC     SUNNY     57  27  30 NW10G20   30.03R
PLANT CITY     SUNNY     57  30  35 W14G20    30.03R
MACDILL AFB    SUNNY     56  34  43 NW13G20   30.03R
PETER O KNIGHT SUNNY     57  32  38 NW9G18    30.04R
ST PETERSBURG  SUNNY     55  34  45 N15G25    30.02R
SARASOTA       SUNNY     56  36  47 NW18G24   30.04R
VENICE         FAIR      55  37  50 NW18G24   30.07R

STATION/POSITION SKY/WX   TEMP    WIND        PRES    WAVE   SWELL
                          AIR SEA DIR/SP/G            HT/PER HT/PER
                          (F)     (DEG/KT/KT) (MB)    (FT/S) (FT/S)
CEDAR KEY                  54     310/ 10/ 14 1016.5F
28.5N   84.5W              56 68  320/ 17/ 21 1018.0R   4/ 6
27.3N   84.2W                 71                N/A     6/ 7
CLEARWATER BEACH           53 56  330/ 19/ 24 1016.7F
MIDDLE TAMPA BAY           54     340/ 18/ 21 1016.6F
VENICE                     55 62  310/ 20/ 22 1017.6R

$$
FLZ066-069-070-075>078-162-262-165-265-072300-
SOUTHWEST FLORIDA AND KEYS

CITY           SKY/WX    TMP DP  RH WIND       PRES   REMARKS
PUNTA GORDA    SUNNY     58  39  49 W17       30.05R
FT MYERS       SUNNY     57  38  48 NW21G26   30.04R
SOUTHWEST INTL SUNNY     58  38  47 W13G23    30.05R
NAPLES         SUNNY     58  41  53 NW18G25   30.06R
MARCO ISLAND   CLEAR     57  37  47 NW16G24   30.05S
MARATHON       MOSUNNY   60  48  64 NW17G28   30.06S
KEY WEST NAS   MOSUNNY   62  48  60 NW18G28   30.07S
KEY WEST INTL  MOSUNNY   63  52  67 N17G26    30.07S

STATION/POSITION SKY/WX   TEMP    WIND        PRES    WAVE   SWELL
                          AIR SEA DIR/SP/G            HT/PER HT/PER
                          (F)     (DEG/KT/KT) (MB)    (FT/S) (FT/S)
VENICE                     55 62  310/ 20/ 22 1017.6R
NAPLES                        65              1017.5S
26.0N   85.6W              62 80  340/ 14/ 19 1020.3F   6/ 8   5/ 8
DRY TORTUGAS     NOT AVBL
SAND KEY                   62     350/ 25/ 28 1018.5R
LONG KEY                   59 67  320/ 24/ 28 1018.4R
MOLASSES REEF              60 76  300/ 23/ 26 1016.4R

$$
FLZ067-068-071>074-168-172>174-072300-
SOUTHEAST FLORIDA

CITY           SKY/WX    TMP DP  RH WIND       PRES   REMARKS
W PALM BEACH   MOSUNNY   59  35  40 W20G28    29.99R
BOCA RATON     SUNNY     61  34  36 W21G30    29.98S
FT LAUDER-EXEC SUNNY     62  32  32 W12G22    29.98F
FT LAUDERDALE  MOSUNNY   63  33  32 W13G26    29.98S
POMPANO BEACH  SUNNY     62  36  37 W20G28    29.98S
PEMBROKE PINES SUNNY     63  35  35 W17       30.01R
OPA LOCKA      SUNNY     64  36  35 W16       30.00S
MIAMI          MOSUNNY   63  36  36 W8G18     30.01R
WEST KENDALL   SUNNY     63  42  46 W18       30.01R
HOMESTEAD      SUNNY     63  40  43 W15       30.01R

STATION/POSITION SKY/WX   TEMP    WIND        PRES    WAVE   SWELL
                          AIR SEA DIR/SP/G            HT/PER HT/PER
                          (F)     (DEG/KT/KT) (MB)    (FT/S) (FT/S)
PORT EVERGLADES        C1F1M1C2F2M2C3F3C4F4M3C5F5M4C6F6M5C7F7M6C8!



USA.gov is the U.S. government's official web portal to all federal, state and local government web resources and services.